[[{"header":{"parameterUnit":"m.s-1","parameterCategory":1,"la1":30.2991,"la2":30.254,"lo1":-89.0895,"lo2":-89.0444,"dy":0.0017,"dx":0.0017,"nx":28,"ny":28,"refTime":"2026-01-09T09:00:00:Z","depth":0,"parameterNumber":2,"parameterNumberName":"U-component_of_WINDS"},"data":[0,0,0,0,0,0,0,0,0,0,0,0,0,0,0,0,0,0,0,0,0,0,0,0,0,0,0,0,0,0,0,0,0,0,0,0,0,0,0,0,0,0,0,0,0,0,0,0,0,0,0,0,0,0,0,0,0,0,-3.5109,-3.511,0,-3.5215,-3.5216,-3.5217,-3.5223,-3.5222,-3.5221,-3.522,-3.5329,-3.5333,-3.5337,0,0,0,0,0,0,0,0,0,0,0,0,0,-3.4912,-3.4916,-3.5109,-3.511,-3.5111,-3.5215,-3.5216,-3.5218,-3.5223,-3.5222,-3.522,-3.5219,-3.5328,-3.5332,-3.5337,0,0,0,0,0,0,0,0,0,0,0,0,0,-3.5006,-3.4917,-3.5108,-3.5127,-3.5129,-3.5215,-3.5216,-3.5218,-3.5224,-3.5222,-3.522,-3.5218,-3.5326,-3.5332,-3.5338,-3.5412,0,0,-3.5356,-3.5359,0,0,0,0,0,0,0,0,-3.5001,-3.5013,-3.5123,-3.5126,-3.5129,-3.5204,-3.5187,-3.5283,-3.5224,-3.5188,-3.522,-3.5217,-3.5289,-3.5298,-3.5322,-3.5417,-3.5422,-3.5357,-3.5361,-3.5363,-3.5365,0,0,0,0,0,0,0,-3.4994,-3.5009,-3.5151,-3.5124,-3.5128,-3.513,-3.5141,-3.5205,-3.5247,-3.5191,-3.5192,-3.5204,-3.529,-3.5316,-3.5324,-3.5424,-3.5357,-3.5362,-3.5366,-3.5368,-3.5586,-3.5588,0,0,0,0,0,0,-3.4984,-3.5003,-3.5147,-3.5154,-3.5059,-3.5135,-3.5148,-3.5182,-3.5247,-3.5255,-3.5206,-3.5204,-3.5306,-3.5317,-3.5328,-3.5419,-3.5363,-3.5369,-3.5372,-3.5584,-3.5587,-3.5589,0,0,0,0,0,0,-3.498,-3.4997,-3.5143,-3.5079,-3.5098,-3.514,-3.5179,-3.5185,-3.521,-3.5258,-3.5265,-3.5224,-3.5305,-3.532,-3.5391,-3.5423,-3.5372,-3.5377,-3.5581,-3.5585,-3.5588,-3.5601,0,0,0,0,0,0,-3.4974,-3.4995,-3.5023,-3.5079,-3.5101,-3.5204,-3.5181,-3.5188,-3.5221,-3.522,-3.5277,-3.5285,-3.5305,-3.5382,-3.5397,-3.543,-3.5382,-3.5579,-3.5583,-3.5587,-3.5598,-3.5605,-3.561,0,0,0,0,0,-3.4967,-3.5023,-3.5025,-3.5042,-3.5137,-3.5206,-3.5218,-3.524,-3.5223,-3.5252,-3.5283,-3.5283,-3.5418,-3.539,-3.5407,-3.5442,-3.5577,-3.5582,-3.5586,-3.5596,-3.5603,-3.561,0,0,0,0,0,0,-3.4969,-3.5031,-3.5033,-3.5109,-3.5152,-3.5206,-3.5243,-3.5248,-3.5296,-3.5293,-3.5319,-3.5332,-3.5403,-3.543,-3.5397,-3.5518,-3.5495,-3.5504,-3.5497,-3.5504,-3.551,-3.5501,-3.5387,0,0,0,0,0,-3.4979,-3.5029,-3.508,-3.5142,-3.5163,-3.52,-3.523,-3.5244,-3.529,-3.5308,-3.5344,-3.5388,-3.5441,-3.5475,-3.5526,-3.5603,-3.5616,-3.5636,-3.5642,-3.5647,-3.5653,-3.5696,-3.5706,-3.5605,-3.5605,-3.5605,0,0,-3.4998,-3.5038,-3.5068,-3.5143,-3.5178,-3.523,-3.5215,-3.527,-3.5309,-3.5316,-3.5385,-3.5414,-3.5466,-3.5541,-3.5575,-3.5565,-3.5685,-3.5653,-3.5656,-3.566,-3.5702,-3.5712,-3.572,-3.5608,-3.5607,-3.5607,0,0,-3.5059,-3.5095,-3.515,-3.5186,-3.5239,-3.5264,-3.5277,-3.5332,-3.535,-3.5421,-3.5428,-3.5475,-3.5564,-3.5601,-3.5631,-3.5709,-3.5711,-3.5725,-3.5755,-3.5797,-3.5805,-3.5812,-3.5839,-3.5849,-3.5732,-3.5732,-3.5732,0,-3.5077,-3.5154,-3.5178,-3.5233,-3.5266,-3.5277,-3.5333,-3.5367,-3.5434,-3.5457,-3.5445,-3.5559,-3.5594,-3.5678,-3.5697,-3.5722,-3.5738,-3.5717,-3.5802,-3.581,-3.5817,-3.5842,-3.5853,-3.5733,-3.5733,-3.5733,-3.5733,0,-3.5173,-3.5227,-3.5265,-3.533,-3.5368,-3.5423,-3.5456,-3.5492,-3.5503,-3.5528,-3.56,-3.5644,-3.5704,-3.5725,-3.5736,-3.5811,-3.5803,-3.5797,-3.5774,-3.5827,-3.5852,-3.5862,-3.5735,-3.5735,-3.5734,-3.5734,0,0,-3.5236,-3.5314,-3.5328,-3.5357,-3.5418,-3.546,-3.5517,-3.5576,-3.5606,-3.5653,-3.5701,-3.5778,-3.5772,-3.5807,-3.5823,-3.586,-3.5918,-3.5849,-3.5851,-3.5859,-3.6002,-3.6005,-3.6016,-3.5921,-3.5923,-3.5925,-3.5997,0,-3.5302,-3.5402,-3.5427,-3.5512,-3.5562,-3.5574,-3.5624,-3.5667,-3.5693,-3.574,-3.577,-3.5823,-3.5813,-3.5834,-3.5871,-3.5903,-3.5947,-3.5898,-3.5965,-3.5967,-3.5949,-3.6029,-3.6032,-3.6098,-3.6007,-3.6009,-3.601,0,-3.5393,-3.5442,-3.5532,-3.5587,-3.5609,-3.5653,-3.5709,-3.5754,-3.5804,-3.582,-3.586,-3.5873,-3.5933,-3.591,-3.5993,-3.596,-3.5989,-3.6009,-3.6013,-3.6017,-3.599,-3.6034,-3.612,-3.6129,-3.6026,-3.6024,-3.6023,0,-3.5428,-3.5517,-3.5582,-3.5608,-3.5674,-3.5704,-3.5733,-3.5781,-3.5815,-3.5865,-3.5887,-3.5944,-3.5974,-3.6018,-3.6046,-3.6027,-3.6127,-3.6106,-3.6142,-3.6141,-3.616,-3.6158,-3.6249,-3.6183,-3.6182,-3.6182,-3.6182,0,-3.5498,-3.5553,-3.5599,-3.5639,-3.5701,-3.5729,-3.579,-3.5819,-3.5862,-3.5909,-3.5924,-3.5967,-3.6003,-3.6051,-3.6074,-3.6139,-3.6153,-3.6168,-3.6173,-3.6166,-3.6163,-3.6183,-3.6179,-3.6185,-3.6184,-3.6184,-3.6183,0,-3.5546,-3.5579,-3.5651,-3.5709,-3.5724,-3.5767,-3.5817,-3.5857,-3.5884,-3.5943,-3.5959,-3.6002,-3.606,-3.6093,-3.6167,-3.6182,-3.6254,-3.6258,-3.6237,-3.6239,-3.6272,-3.6267,-3.6377,-3.6393,-3.6318,-3.6318,-3.6319,0,-3.5588,-3.563,-3.5692,-3.5724,-3.5754,-3.5806,-3.584,-3.5871,-3.5907,-3.5968,-3.6,-3.606,-3.6108,-3.6201,-3.6239,-3.6296,-3.63,-3.6334,-3.6308,-3.6299,-3.6298,-3.6294,-3.6299,-3.6338,-3.6339,-3.6339,-3.634,0,-3.5658,-3.5673,-3.5722,-3.5778,-3.5819,-3.5865,-3.591,-3.5936,-3.5974,-3.6014,-3.6073,-3.6111,-3.6187,-3.6245,-3.6305,-3.6336,-3.6344,-3.6348,-3.6359,-3.635,-3.6336,-3.6343,-3.6247,-3.6345,-3.6344,-3.6344,-3.6343,-3.6343,-3.5703,-3.5741,-3.5791,-3.5846,-3.5883,-3.5925,-3.5966,-3.5999,-3.6049,-3.6112,-3.6128,-3.619,-3.6241,-3.6322,-3.6355,-3.6404,-3.6398,-3.6414,-3.6418,-3.6421,-3.6421,-3.633,-3.6416,-3.6416,-3.6416,-3.6416,-3.6416,0,-3.5772,-3.5805,-3.5856,-3.5918,-3.5962,-3.5967,-3.6018,-3.6054,-3.6109,-3.6155,-3.6203,-3.6272,-3.6329,-3.6373,-3.6432,-3.6463,-3.6469,-3.6478,-3.6474,-3.6481,-3.6424,-3.6408,-3.6472,-3.6472,-3.6472,-3.6472,-3.6472,-3.6472,-3.5813,-3.5878,-3.5898,-3.5982,-3.6015,-3.6076,-3.6105,-3.6144,-3.6181,-3.6257,-3.6305,-3.6333,-3.6379,-3.6441,-3.6494,-3.6506,-3.6526,-3.6534,-3.6546,-3.6491,-3.6485,-3.6479,-3.6464,-3.6539,-3.6539,-3.6599,-3.6599,-3.66]},{"header":{"parameterUnit":"m.s-1","parameterCategory":1,"la1":30.2991,"la2":30.254,"lo1":-89.0895,"lo2":-89.0444,"dy":0.0017,"dx":0.0017,"nx":28,"ny":28,"refTime":"2026-01-09T09:00:00:Z","depth":0,"parameterNumber":3,"parameterNumberName":"V-component_of_WINDS"},"data":[0,0,0,0,0,0,0,0,0,0,0,0,0,0,0,0,0,0,0,0,0,0,0,0,0,0,0,0,0,0,0,0,0,0,0,0,0,0,0,0,0,0,0,0,0,0,0,0,0,0,0,0,0,0,0,0,0,0,3.2285,3.2286,0,3.2342,3.2342,3.2343,3.2353,3.2353,3.2352,3.2352,3.2406,3.2408,3.241,0,0,0,0,0,0,0,0,0,0,0,0,0,3.2185,3.2187,3.2285,3.2286,3.2287,3.2341,3.2342,3.2343,3.2353,3.2353,3.2352,3.2352,3.2405,3.2408,3.241,0,0,0,0,0,0,0,0,0,0,0,0,0,3.2233,3.2187,3.2285,3.2298,3.23,3.2341,3.2342,3.2343,3.2353,3.2353,3.2352,3.2351,3.2405,3.2407,3.241,3.2441,0,0,3.2419,3.242,0,0,0,0,0,0,0,0,3.2231,3.2237,3.2296,3.2298,3.23,3.234,3.2327,3.2376,3.2354,3.2333,3.2352,3.2351,3.2384,3.2389,3.2401,3.2443,3.2446,3.2419,3.2421,3.2422,3.2423,0,0,0,0,0,0,0,3.2227,3.2235,3.2307,3.2297,3.2299,3.2301,3.2307,3.2336,3.2362,3.2335,3.2336,3.2342,3.2385,3.2398,3.2402,3.2447,3.2419,3.2421,3.2423,3.2424,3.252,3.2521,0,0,0,0,0,0,3.2222,3.2232,3.2306,3.2309,3.2263,3.2303,3.231,3.2327,3.2361,3.2366,3.2343,3.2343,3.2394,3.2399,3.2404,3.2444,3.2422,3.2424,3.2426,3.2519,3.252,3.2521,0,0,0,0,0,0,3.222,3.2228,3.2303,3.2271,3.228,3.2306,3.2325,3.2329,3.2342,3.2368,3.2372,3.2351,3.2393,3.24,3.2433,3.2446,3.2426,3.2428,3.2518,3.252,3.2521,3.2524,0,0,0,0,0,0,3.2217,3.2227,3.2239,3.2271,3.2282,3.2331,3.2326,3.233,3.2347,3.2347,3.2377,3.2381,3.2393,3.2428,3.2435,3.245,3.243,3.2517,3.2519,3.2521,3.2522,3.2525,3.2527,0,0,0,0,0,3.2213,3.2237,3.224,3.2249,3.2298,3.2332,3.2338,3.2353,3.2348,3.236,3.2378,3.238,3.2444,3.2432,3.244,3.2455,3.2516,3.2518,3.252,3.2521,3.2524,3.2527,0,0,0,0,0,0,3.2204,3.2241,3.2245,3.228,3.2303,3.2334,3.235,3.2355,3.2379,3.2378,3.2395,3.2401,3.2433,3.2447,3.2433,3.2488,3.248,3.2483,3.2478,3.2481,3.2483,3.2479,3.2433,0,0,0,0,0,3.2206,3.2232,3.2262,3.229,3.2301,3.2324,3.2339,3.2349,3.2373,3.2382,3.2402,3.2424,3.245,3.2466,3.249,3.2524,3.2532,3.2539,3.2541,3.2543,3.2546,3.2568,3.2572,3.2528,3.2528,3.2528,0,0,3.2211,3.2234,3.2249,3.2289,3.2308,3.2334,3.2332,3.2358,3.2378,3.2386,3.2419,3.2434,3.246,3.2495,3.251,3.2507,3.256,3.2546,3.2547,3.2549,3.257,3.2574,3.2578,3.2529,3.2529,3.2529,0,0,3.2232,3.2252,3.2279,3.2299,3.2329,3.2344,3.235,3.2381,3.2392,3.2426,3.2433,3.2456,3.2498,3.2518,3.2533,3.2566,3.257,3.2573,3.2585,3.2606,3.2609,3.2612,3.2625,3.263,3.2576,3.2576,3.2576,0,3.2234,3.2274,3.2291,3.2319,3.2337,3.2347,3.2375,3.2393,3.2428,3.244,3.2436,3.2493,3.2511,3.2551,3.2559,3.2571,3.2579,3.257,3.2607,3.2611,3.2614,3.2627,3.2631,3.2576,3.2576,3.2576,3.2576,0,3.2275,3.2303,3.2321,3.2358,3.2377,3.2404,3.2426,3.2444,3.2452,3.2468,3.2503,3.2526,3.2556,3.2566,3.2574,3.2608,3.2606,3.2604,3.2596,3.2618,3.2631,3.2635,3.2577,3.2577,3.2577,3.2577,0,0,3.2291,3.2339,3.2346,3.2364,3.2399,3.242,3.2449,3.248,3.2496,3.2521,3.2546,3.2583,3.2583,3.2601,3.2611,3.2629,3.2655,3.2626,3.2626,3.2631,3.2697,3.2698,3.2704,3.2658,3.2659,3.266,3.2695,0,3.2318,3.237,3.2388,3.2431,3.2458,3.2469,3.2494,3.2518,3.2534,3.2559,3.2576,3.2603,3.26,3.2611,3.263,3.2648,3.2669,3.2646,3.2681,3.2683,3.2676,3.271,3.2711,3.2743,3.27,3.2701,3.2701,0,3.2356,3.2384,3.2431,3.2465,3.2477,3.2499,3.2531,3.2555,3.2583,3.2593,3.2615,3.2624,3.2654,3.2645,3.2687,3.2671,3.2687,3.2699,3.27,3.2705,3.2694,3.2716,3.2753,3.2759,3.2709,3.2708,3.2707,0,3.2365,3.2414,3.2449,3.2464,3.2504,3.252,3.2538,3.2565,3.2584,3.2612,3.2625,3.2654,3.2671,3.2694,3.2712,3.2703,3.2753,3.2745,3.2763,3.2763,3.2773,3.2772,3.2815,3.2782,3.2782,3.2782,3.2782,0,3.2394,3.2422,3.2454,3.2476,3.2508,3.2528,3.256,3.2578,3.2603,3.2628,3.2639,3.2663,3.2684,3.271,3.2724,3.2758,3.2765,3.2775,3.2778,3.2774,3.2773,3.2785,3.2784,3.2783,3.2783,3.2782,3.2782,0,3.2409,3.2432,3.2471,3.2507,3.2517,3.254,3.2571,3.2592,3.261,3.2642,3.265,3.2677,3.2709,3.2729,3.2768,3.2778,3.2816,3.2818,3.2807,3.2809,3.2827,3.2825,3.2879,3.2887,3.2848,3.2848,3.2848,0,3.2426,3.2449,3.2489,3.2507,3.2526,3.2555,3.2575,3.2596,3.2617,3.2653,3.267,3.2703,3.2731,3.2781,3.2804,3.2835,3.2838,3.2855,3.2843,3.2839,3.284,3.2839,3.2842,3.2857,3.2857,3.2857,3.2858,0,3.2455,3.2466,3.2495,3.253,3.2554,3.2581,3.2609,3.2623,3.2649,3.2671,3.2705,3.2727,3.2769,3.2802,3.2836,3.2853,3.286,3.2861,3.2868,3.2864,3.2858,3.2863,3.2814,3.286,3.286,3.286,3.2859,3.2859,3.2472,3.2494,3.2527,3.256,3.2583,3.2609,3.2632,3.2654,3.2683,3.272,3.2731,3.2766,3.2796,3.2842,3.2861,3.2889,3.2887,3.2895,3.2897,3.2899,3.2901,3.2853,3.2895,3.2895,3.2895,3.2895,3.2895,0,3.2503,3.2525,3.2556,3.2595,3.2622,3.2628,3.2659,3.268,3.2713,3.274,3.2768,3.2808,3.2841,3.2867,3.2901,3.2919,3.2923,3.2927,3.2926,3.2931,3.29,3.2892,3.2923,3.2923,3.2923,3.2923,3.2923,3.2923,3.2522,3.256,3.2575,3.2625,3.2647,3.2684,3.2702,3.2726,3.2749,3.2794,3.2822,3.2839,3.2867,3.2904,3.2934,3.2941,3.2953,3.2957,3.2965,3.2936,3.2932,3.2929,3.2922,3.2959,3.2959,3.2993,3.2994,3.2994]}]]